Погода в Саузбаше

Россия / Республика Башкортостан     55°59′01″N   53°55′23″E
темп.,
°C
ветер,
м/с
пор.,
м/с
влажн.,
%
обл.,
%
осадки,
мм/ч
давл.,
гПа
погр.,
м
6 марта, сб
сб623:00−13з45910 0.0 100871
02:00−15зюз34957 0.0 100858
05:00−15юз459840 0.0 100993
08:00−13зюз499699 0.1 1009224
11:00−11з4793100 0.5 1011405
14:00−8зсз458598 0.1 1012643
17:00−9з368683 0.1 1012603
20:00−13зюз349190 0.0 101257
7 марта, вс
вс723:00−16з339555 0.0 101324
02:00−17зюз239780 0.0 101220
05:00−17юз229980 0.1 101123
08:00−17зюз229898 0.1 101124
11:00−14зюз239394 0.1 1010225
14:00−11зюз238899 0.1 1010417
17:00−11юз3490100 0.1 1009466
20:00−15ю339792 0.0 100922
8 марта, пн
пн823:00−16ююв349780 0.1 100833
02:00−14ююв4109498 0.0 1005267
05:00−11ю6129599 0.8 1001617
08:00−9ю71395100 1.1 998663
11:00−4ююз81394100 2.3 997970
14:00−5зюз61172100 0.4 998797
17:00−5юз4982100 0.4 999612
20:00−8ююз3486100 0.0 100085
9 марта, вт
вт923:00−7ююз51391100 0.1 1000475
02:00−7юз4995100 0.1 1000285
05:00−10юз3695100 0.1 1000116
08:00−13зюз469790 0.0 100199
11:00−12з469593 0.1 1004256
14:00−9зюз3592100 0.0 1006377
17:00−9зюз479099 0.1 1007511
20:00−11зюз4795100 0.1 1007229
10 марта, ср
ср1023:00−16зсз349697 0.1 100949
02:00−19зсз349840 0.0 100935
05:00−21зсз349947 0.0 101067
08:00−21сз369895 0.0 1010106
11:00−19ссз579394 0.1 1012362
14:00−18сз578995 0.0 1014414
17:00−17сз588662 0.0 1015531
20:00−22сз349419 0.0 101635